Regional Weather Roundup
Issued by NWS Cleveland, OH

Home | Current Version | Previous Version | Graphics & Text | Print | Product List | Glossary On
Versions: 1 2 3 4 5 6 7 8 9 10 11 12 13 14 15 16 17 18 19 20 21 22 23 24 25 26 27 28 29 30 31 32 33 34 35 36 37 38 39 40 41 42 43 44 45 46 47 48 49 50
000
ASUS41 KCLE 262010
RWRCLE
OHIO REGIONAL WEATHER ROUNDUP
NATIONAL WEATHER SERVICE CLEVELAND, OH
400 PM EDT SUN APR 26 2015

NOTE: "FAIR" INDICATES FEW OR NO CLOUDS BELOW 12,000 FEET WITH NO
SIGNIFICANT WEATHER AND/OR OBSTRUCTIONS TO VISIBILITY.

OHZ001>008-015>018-024>027-034-035-043-044-262100-
   NORTHWEST OHIO

CITY           SKY/WX    TMP DP  RH WIND       PRES   REMARKS
DEFIANCE       SUNNY     59  31  34 NW15      29.89F
FINDLAY        SUNNY     57  30  35 NE12G24   29.87F
TOLEDO EXPRESS MOSUNNY   58  28  32 N12G21    29.88F
TOLEDO EXEC    SUNNY     57  28  33 E9G17     29.90F
LIMA           SUNNY     55  33  43 N17       29.87F
$$

OHZ009>014-019>023-028>033-038-089-262100-
   NORTHEAST OHIO

CITY           SKY/WX    TMP DP  RH WIND       PRES   REMARKS
CLE-HOPKINS    SUNNY     52  29  41 NE9       29.90F
CLE-LAKEFRONT  SUNNY     46  34  62 W7        29.88F
CUY CO. ARPT   NOT AVBL
LORAIN-ELYRIA  SUNNY     53  31  42 N14       29.88F
ASHTABULA      SUNNY     52  29  41 NW13      29.85F
AKRON-CANTON   MOSUNNY   57  31  37 N15       29.82R
WOOSTER        SUNNY     53  30  41 N15       29.84S
MANSFIELD      SUNNY     54  29  38 NW16      29.85S
YOUNGSTOWN     MOSUNNY   55  29  36 N22       29.81S
$$

OHZ042-051>053-060>062-070>072-077>081-262100-
  SOUTHWEST OHIO

CITY           SKY/WX    TMP DP  RH WIND       PRES   REMARKS
CINC-COVINGTON MOSUNNY   59  34  39 N9G21     29.85S
CINC-LUNKEN    SUNNY     60  37  42 N8        29.85F
HAMILTON       SUNNY     60  38  43 NW14G21   29.86F
DAYTON         PTSUNNY   57  36  45 N15G22    29.86F
WRIGHT-PAT AFB MOSUNNY   58  34  40 VRB7G18   29.85S
DAYTON GENERAL MOSUNNY   56  36  47 N15G24    29.85S
WILMINGTON     SUNNY     57  33  40 N14G22    29.84S
$$

OHZ036-037-039>041-045>050-054>059-063>069-073>076-082>088-262100-
  CENTRAL AND SOUTHEAST OHIO

CITY           SKY/WX    TMP DP  RH WIND       PRES   REMARKS
COLUMBUS       MOSUNNY   58  33  39 N17       29.81F
OSU AIRPORT    SUNNY     58  34  40 N15G23    29.83S
BOLTON FIELD   SUNNY     57  30  35 N14G23    29.83S
RICKENBACK AFB SUNNY     58  33  38 N13G18    29.81S
NEWARK         SUNNY     59  30  33 N10G20    29.80F
MARION         SUNNY     55  29  36 N17G25    29.86S
LANCASTER      SUNNY     61  35  37 N14G21    29.81S
ZANESVILLE     SUNNY     58  30  34 N9G21     29.79S
NEW PHILLY     SUNNY     61  31  32 NW13G21   29.79F
$$


USA.gov is the U.S. government's official web portal to all federal, state and local government web resources and services.